Location: Black Forest
(43.4794°N, 75.0081°W)
Time: 21:04:46
(UTC-04:00)

ISS - All Passes

Search period start: 25 July 2014 00:00
Search period end: 04 August 2014 00:00
Orbit: 411 x 420 km, 51.6° (Epoch: 25 July)

Date Brightness Start Highest point End Pass type
(mag) Time Alt. Az. Time Alt. Az. Time Alt. Az.
25 Jul - 00:34:32 10° SSE 00:36:26 14° SE 00:38:20 10° E night (unlit)
25 Jul - 02:09:24 10° WSW 02:12:45 79° NNW 02:16:07 10° NE visible
25 Jul - 03:47:04 10° WNW 03:49:52 24° NNW 03:52:40 10° NE visible
25 Jul - 05:24:42 10° NW 05:27:23 21° N 05:30:03 10° ENE daylight
25 Jul - 07:01:19 10° NW 07:04:38 54° NNE 07:07:56 10° ESE daylight
25 Jul - 08:38:27 10° W 08:41:08 22° SW 08:43:49 10° S daylight
26 Jul - 01:20:41 10° SW 01:23:59 63° SE 01:27:19 10° ENE visible
26 Jul - 02:57:56 10° W 03:00:55 29° NNW 03:03:54 10° NE visible
26 Jul - 04:35:48 10° NW 04:38:23 20° N 04:40:58 10° NE visible
26 Jul - 06:12:35 10° NW 06:15:46 37° NNE 06:18:56 10° E daylight
26 Jul - 07:49:21 10° WNW 07:52:30 37° SW 07:55:37 10° SSE daylight
27 Jul - 00:32:11 10° SSW 00:35:17 36° SE 00:38:25 10° ENE visible
27 Jul - 02:08:51 10° W 02:12:00 37° NNW 02:15:11 10° NE visible
27 Jul - 03:46:49 10° NW 03:49:23 20° N 03:51:58 10° NE visible
27 Jul - 05:23:52 10° NW 05:26:52 28° NNE 05:29:51 10° E daylight
27 Jul - 07:00:27 10° WNW 07:03:48 64° SW 07:07:07 10° SE daylight
27 Jul - 23:44:01 10° S 23:46:39 22° SE 23:49:19 10° E night (unlit)
28 Jul - 01:19:52 10° WSW 01:23:09 54° NNW 01:26:28 10° NE visible
28 Jul - 02:57:44 10° WNW 03:00:24 21° N 03:03:05 10° NE visible
28 Jul - 04:35:07 10° NW 04:37:55 24° NNE 04:40:43 10° ENE visible
28 Jul - 06:11:40 10° NW 06:15:03 77° NNE 06:18:24 10° ESE daylight
28 Jul - 07:49:25 10° W 07:51:22 15° SW 07:53:20 10° SSW daylight
28 Jul - 22:56:29 10° SSE 22:58:06 13° SE 22:59:43 10° ESE night (unlit)
29 Jul - 00:31:01 10° WSW 00:34:22 86° NNW 00:37:44 10° ENE visible
29 Jul - 02:08:38 10° WNW 02:11:27 24° NNW 02:14:17 10° NE visible
29 Jul - 03:46:19 10° NW 03:48:58 21° N 03:51:36 10° ENE visible
29 Jul - 05:22:57 10° NW 05:26:15 50° NNE 05:29:32 10° ESE daylight
29 Jul - 07:00:00 10° W 07:02:48 24° SW 07:05:35 10° SSE daylight
29 Jul - 23:42:22 10° SW 23:45:38 57° SE 23:48:57 10° ENE night (unlit)
30 Jul - 01:19:31 10° W 01:22:32 30° NNW 01:25:33 10° NE visible
30 Jul - 02:57:25 10° NW 02:59:59 20° N 03:02:34 10° NE visible
30 Jul - 04:34:15 10° NW 04:37:24 35° NNE 04:40:32 10° E visible
30 Jul - 06:10:58 10° WNW 06:14:10 41° SW 06:17:21 10° SSE daylight
30 Jul - 22:53:57 10° SSW 22:56:59 33° SE 23:00:02 10° ENE night (unlit)
31 Jul - 00:30:29 10° W 00:33:40 40° NNW 00:36:52 10° NE visible
31 Jul - 02:08:26 10° NW 02:11:01 20° N 02:13:36 10° NE visible
31 Jul - 03:45:33 10° NW 03:48:30 27° NNE 03:51:27 10° ENE visible
31 Jul - 05:22:07 10° WNW 05:25:29 71° SW 05:28:49 10° SE daylight
31 Jul - 22:05:54 10° S 22:08:23 20° SE 22:10:54 10° E night (unlit)
31 Jul - 23:41:32 10° WSW 23:44:51 59° NNW 23:48:11 10° NE visible
01 Aug - 01:19:23 10° WNW 01:22:04 22° N 01:24:46 10° NE visible
01 Aug - 02:56:49 10° NW 02:59:35 23° NNE 03:02:21 10° ENE visible
01 Aug - 04:33:22 10° NW 04:36:45 71° NNE 04:40:06 10° ESE visible
01 Aug - 06:10:56 10° W 06:13:07 16° SW 06:15:17 10° S daylight
01 Aug - 21:18:37 10° SSE 21:19:52 12° SE 21:21:06 10° ESE visible
01 Aug - 22:52:45 10° SW 22:56:05 87° SSE 22:59:27 10° ENE visible
02 Aug - 00:30:17 10° WNW 00:33:08 25° NNW 00:36:00 10° NE visible
02 Aug - 02:08:02 10° NW 02:10:39 21° N 02:13:16 10° ENE visible
02 Aug - 03:44:41 10° NW 03:47:57 46° NNE 03:51:13 10° E visible
02 Aug - 05:21:39 10° WNW 05:24:33 27° SW 05:27:26 10° SSE daylight
02 Aug - 22:04:10 10° SW 22:07:24 51° SE 22:10:40 10° ENE visible
02 Aug - 23:41:13 10° W 23:44:15 31° NNW 23:47:19 10° NE visible
03 Aug - 01:19:08 10° NW 01:21:42 20° N 01:24:16 10° NE visible
03 Aug - 02:56:01 10° NW 02:59:07 33° NNE 03:02:13 10° E visible
03 Aug - 04:32:41 10° WNW 04:35:56 46° SW 04:39:10 10° SE visible
03 Aug - 21:15:49 10° SSW 21:18:47 30° SE 21:21:45 10° ENE visible
03 Aug - 22:52:13 10° W 22:55:25 42° NNW 22:58:39 10° NE visible
